Miscellaneous Local Product
Issued by NWS North Platte, NE

Home | Current Version | Previous Version | Graphics & Text | Print | Product List | Glossary On
Versions: 1 2 3 4 5 6 7 8 9 10 11 12 13 14 15 16 17 18 19 20 21 22 23 24 25 26 27 28 29 30 31 32 33 34 35 36 37 38 39 40 41 42 43 44 45 46 47 48 49 50
073
AXUS43 KLBF 271710
MISLBF


WESTERN AND NORTH CENTRAL NEBRASKA HOURLY WEATHER ROUNDUP
NATIONAL WEATHER SERVICE NORTH PLATTE NE
1200 PM CDT WED APR 27 2016

NOTE: "FAIR" INDICATES FEW OR NO CLOUDS BELOW 12,000 FEET WITH NO
SIGNIFICANT WEATHER AND/OR OBSTRUCTIONS TO VISIBILITY.

NOTE: STATIONS NOT REPORTING VARIABLES SUCH AS SKY/WEATHER OR
PRESSURE ARE PROVIDED BY RAWS AND APRS NETWORKS AND ARE NOT UNDER
NATIONAL WEATHER SERVICE QUALITY CONTROL.

...OBSERVATIONS IN AND NEAR THE EASTERN PANHANDLE OF NEBRASKA...

CITY           SKY/WX    TMP DP  RH WIND       PRES   REMARKS
PINE RIDGE     FLURRIES  35  33  92 NW12      29.79S WCI  27
CHADRON        LGT RAIN  40  37  89 N16       29.81F WCI  31
ALLIANCE       LGT RAIN  41  35  79 N22G39    29.75S
SIDNEY         CLOUDY    43  33  68 NW30G37   29.77R
CRESCENT LAKE    N/A     40  34  79 N23G33      N/A  WCI  30
BIG SPRINGS      N/A     42  37  84 NW10        N/A
$$

...OBSERVATIONS IN NORTHERN NEBRASKA AND FAR SOUTHERN SOUTH DAKOTA...

CITY           SKY/WX    TMP DP  RH WIND       PRES   REMARKS
WINNER         RAIN      41  37  86 N23G30    29.66R FOG
VALENTINE      LGT SNOW  33  31  92 N14       29.67R FOG     WCI  23
THEDFORD       SNOW      34  34  98 NW21G28   29.63F VSB 1/2 WCI  23
AINSWORTH      LGT SNOW  33  33  99 N16       29.63R WCI  23
O`NEILL        CLOUDY    41  39  93 N21G28    29.54R
ORD            LGT RAIN  43  41  93 N25       29.47S FOG
BROKEN BOW     CLOUDY    39  36  89 N28G40    29.53R WCI  28
VALENTINE NWR    N/A     33  33  99 NW16        N/A  WCI  22
BUTTE            N/A     38  36  94 NE17G24     N/A  WCI  28
HALSEY           N/A     33  33  99 NW12G20     N/A  WCI  24
CHAMBERS         N/A     42  40  94 N10         N/A
EWING            N/A     44  43  96 NE7G14      N/A
$$

...OBSERVATIONS IN SOUTHWEST NEBRASKA AND FAR NORTHEAST COLORADO...

CITY           SKY/WX    TMP DP  RH WIND       PRES   REMARKS
IMPERIAL       CLOUDY    46  35  65 NW31G43   29.68S
OGALLALA       CLOUDY    46  34  65 NW28G35   29.68F
NORTH PLATTE   LGT RAIN  42  37  82 N26G38    29.62S
MCCOOK         CLOUDY    47  39  74 NW28G36   29.63R
LEXINGTON      CLOUDY    41  37  84 NW33G39   29.55R
STAPLETON        N/A     37  36  95 W6G16       N/A  WCI  32
GOTHENBURG       N/A     37  34  89 NW20        N/A  WCI  26
CALLAWAY         N/A     35  34  96 NW26        N/A  WCI  22
$$

...OBSERVATIONS IN CENTRAL LINCOLN COUNTY AREA...

CITY           SKY/WX    TMP DP  RH WIND       PRES   REMARKS
N.P. AIRPORT   LGT RAIN  42  37  82 N26G38    29.62S
N.P. DOWNTOWN    N/A     40  37  90 NW13G22     N/A  WCI  32
N.P. SOUTHEAST   N/A     40  36  87 N10G20      N/A  WCI  33
N.P. HILLCREST   N/A     39  38  97 N31G45      N/A  WCI  27
$$

...SOME OBSERVATIONS FROM AROUND THE REGION...

CITY           SKY/WX    TMP DP  RH WIND       PRES   REMARKS
DENVER         MOSUNNY   44  26  49 N10G18    29.83R
LARAMIE        CLOUDY    29  25  85 N21G32    29.83R WCI  16
CHEYENNE       CLOUDY    34  25  69 N18G30    29.82S WCI  23
SCOTTSBLUFF    CLOUDY    45  33  63 NW24G30   29.80S
RAPID CITY     LGT SNOW  34  33  96 N21G32    29.82S FOG     WCI  22
BISMARCK       CLOUDY    42  33  70 E14       29.94R
PIERRE         RAIN      38  36  92 NE25G35   29.74R FOG     WCI  27
SIOUX FALLS    LGT RAIN  40  38  93 E21G29    29.65F WCI  30
OMAHA          CLOUDY    56  53  90 E20       29.49F
GRAND ISLAND   PTSUNNY   58  50  75 N12       29.35R
KANSAS CITY    CLOUDY    64  56  75 SW8       29.55S
WICHITA        CLOUDY    59  47  64 W20G25    29.63R
OKLAHOMA CITY  MOSUNNY   65  52  62 NW14      29.69R
DALLAS         SUNNY     79  48  33 W10       29.68R
AMARILLO       SUNNY     61  34  36 N13G20    29.81S
DODGE CITY     SUNNY     54  36  50 NW23G32   29.71R
HAYS           CLOUDY    52  37  58 W23G30    29.63R
GOODLAND       CLOUDY    48  35  60 NW24G38   29.71R
$$




USA.gov is the U.S. government's official web portal to all federal, state and local government web resources and services.